TimeCST,TemperatureF,Dew PointF,Humidity,Sea Level PressureIn,VisibilityMPH,Wind Direction,Wind SpeedMPH,Gust SpeedMPH,PrecipitationIn,Events,Conditions,WindDirDegrees,DateUTC
12:15 AM,31.3,20.3,64,29.97,10.0,SSE,17.3,20.7,N/A,,Clear,150,2013-02-18 06:15:00
12:35 AM,31.1,20.3,64,29.96,10.0,SSE,15.0,20.7,N/A,,Clear,150,2013-02-18 06:35:00
12:55 AM,31.1,20.3,64,29.95,10.0,SSE,16.1,-,N/A,,Clear,150,2013-02-18 06:55:00
1:15 AM,31.5,20.3,63,29.94,10.0,SSE,16.1,21.9,N/A,,Clear,150,2013-02-18 07:15:00
1:35 AM,31.6,20.5,63,29.93,10.0,SSE,15.0,-,N/A,,Clear,150,2013-02-18 07:35:00
1:55 AM,31.6,20.3,63,29.92,10.0,SSE,16.1,-,N/A,,Clear,150,2013-02-18 07:55:00
2:15 AM,31.6,20.3,63,29.90,10.0,SSE,17.3,25.3,N/A,,Clear,150,2013-02-18 08:15:00
2:35 AM,31.6,20.3,63,29.89,10.0,SSE,16.1,25.3,N/A,,Clear,150,2013-02-18 08:35:00
2:55 AM,31.8,20.7,63,29.88,10.0,SSE,19.6,-,N/A,,Clear,150,2013-02-18 08:55:00
3:15 AM,31.5,20.5,64,29.87,10.0,SSE,17.3,23.0,N/A,,Clear,150,2013-02-18 09:15:00
3:35 AM,31.1,20.8,66,29.86,10.0,SSE,16.1,-,N/A,,Clear,150,2013-02-18 09:35:00
3:55 AM,31.1,21.0,66,29.85,10.0,SSE,16.1,-,N/A,,Clear,150,2013-02-18 09:55:00
4:15 AM,31.3,21.2,66,29.84,10.0,SSE,18.4,25.3,N/A,,Clear,150,2013-02-18 10:15:00
4:35 AM,31.6,21.4,66,29.83,10.0,SSE,16.1,20.7,N/A,,Clear,150,2013-02-18 10:35:00
4:55 AM,31.6,21.7,67,29.82,10.0,SSE,13.8,-,N/A,,Clear,160,2013-02-18 10:55:00
5:15 AM,32.0,22.1,67,29.81,10.0,SSE,12.7,-,N/A,,Clear,150,2013-02-18 11:15:00
5:35 AM,32.0,22.6,68,29.80,10.0,SSE,16.1,21.9,N/A,,Clear,160,2013-02-18 11:35:00
5:55 AM,32.0,23.0,69,29.79,10.0,SSE,16.1,23.0,N/A,,Clear,160,2013-02-18 11:55:00
6:15 AM,32.0,23.0,69,29.79,10.0,SSE,13.8,-,N/A,,Clear,160,2013-02-18 12:15:00
6:35 AM,32.0,23.0,69,29.78,10.0,SSE,12.7,-,N/A,,Clear,160,2013-02-18 12:35:00
6:55 AM,32.0,24.8,75,29.77,10.0,SSE,15.0,-,N/A,,Clear,160,2013-02-18 12:55:00
7:15 AM,33.1,24.8,72,29.77,10.0,SSE,13.8,-,N/A,,Clear,160,2013-02-18 13:15:00
7:35 AM,34.3,25.7,71,29.76,10.0,SSE,11.5,19.6,N/A,,Clear,160,2013-02-18 13:35:00
7:55 AM,35.1,26.4,71,29.76,10.0,SSE,16.1,-,N/A,,Clear,160,2013-02-18 13:55:00
8:15 AM,37.4,28.4,70,29.75,10.0,South,13.8,-,N/A,,Clear,170,2013-02-18 14:15:00
8:35 AM,38.7,29.1,69,29.75,10.0,South,13.8,-,N/A,,Clear,170,2013-02-18 14:35:00
8:55 AM,41.7,30.7,65,29.73,10.0,South,19.6,24.2,N/A,,Clear,180,2013-02-18 14:55:00
9:15 AM,43.3,31.8,64,29.73,10.0,South,18.4,25.3,N/A,,Clear,180,2013-02-18 15:15:00
9:35 AM,45.5,32.5,61,29.72,10.0,South,21.9,29.9,N/A,,Clear,190,2013-02-18 15:35:00
9:55 AM,46.6,33.6,61,29.71,10.0,South,20.7,28.8,N/A,,Clear,190,2013-02-18 15:55:00
10:15 AM,48.0,34.9,60,29.71,10.0,South,18.4,24.2,N/A,,Clear,190,2013-02-18 16:15:00
10:35 AM,49.8,36.0,59,29.70,10.0,South,18.4,25.3,N/A,,Clear,190,2013-02-18 16:35:00
10:55 AM,51.8,37.0,57,29.69,10.0,SSW,23.0,-,N/A,,Clear,200,2013-02-18 16:55:00
11:15 AM,53.8,37.9,55,29.69,10.0,SSW,20.7,28.8,N/A,,Clear,200,2013-02-18 17:15:00
11:35 AM,54.5,39.0,56,29.67,10.0,SSW,26.5,31.1,N/A,,Clear,200,2013-02-18 17:35:00
11:55 AM,52.7,39.0,60,29.67,10.0,South,19.6,26.5,N/A,,Clear,190,2013-02-18 17:55:00
12:15 PM,53.6,39.7,59,29.65,10.0,SSW,20.7,25.3,N/A,,Mostly Cloudy,200,2013-02-18 18:15:00
12:35 PM,52.7,40.1,62,29.65,10.0,South,25.3,29.9,N/A,,Overcast,190,2013-02-18 18:35:00
12:55 PM,52.3,40.5,64,29.64,10.0,South,18.4,31.1,N/A,,Overcast,190,2013-02-18 18:55:00
1:15 PM,52.3,41.2,66,29.63,10.0,South,19.6,26.5,N/A,,Overcast,190,2013-02-18 19:15:00
1:35 PM,52.5,41.9,67,29.62,10.0,SSW,18.4,-,N/A,,Overcast,200,2013-02-18 19:35:00
1:55 PM,52.2,42.1,69,29.61,10.0,SSW,18.4,24.2,N/A,,Overcast,200,2013-02-18 19:55:00
2:15 PM,52.3,42.8,70,29.60,10.0,SSW,16.1,20.7,N/A,,Overcast,200,2013-02-18 20:15:00
2:35 PM,52.7,42.8,69,29.59,10.0,South,15.0,-,N/A,,Overcast,190,2013-02-18 20:35:00
2:55 PM,53.1,43.5,70,29.58,10.0,South,15.0,-,N/A,,Overcast,190,2013-02-18 20:55:00
3:15 PM,53.1,43.7,71,29.57,10.0,South,13.8,27.6,N/A,,Overcast,190,2013-02-18 21:15:00
3:35 PM,52.9,43.9,71,29.55,10.0,South,15.0,24.2,N/A,,Overcast,190,2013-02-18 21:35:00
3:55 PM,52.7,44.1,72,29.54,10.0,South,17.3,24.2,N/A,,Overcast,180,2013-02-18 21:55:00
4:15 PM,51.3,43.7,75,29.53,10.0,South,17.3,26.5,N/A,,Overcast,170,2013-02-18 22:15:00
4:35 PM,51.1,43.5,75,29.52,10.0,South,21.9,32.2,N/A,,Overcast,180,2013-02-18 22:35:00
4:55 PM,50.9,43.3,75,29.51,10.0,South,23.0,31.1,N/A,,Overcast,190,2013-02-18 22:55:00
5:15 PM,50.0,43.3,78,29.50,10.0,South,24.2,32.2,N/A,,Overcast,170,2013-02-18 23:15:00
5:35 PM,48.6,43.9,84,29.49,10.0,South,21.9,31.1,N/A,Rain,Rain,180,2013-02-18 23:35:00
5:55 PM,48.4,44.2,86,29.48,10.0,South,28.8,33.4,N/A,,Overcast,180,2013-02-18 23:55:00
6:15 PM,48.2,44.2,86,29.47,10.0,South,21.9,32.2,N/A,,Light Drizzle,180,2013-02-19 00:15:00
6:35 PM,48.2,46.4,93,29.47,7.0,South,23.0,35.7,N/A,,Light Drizzle,180,2013-02-19 00:35:00
6:55 PM,47.3,46.9,99,29.46,4.0,South,24.2,33.4,0.02,Rain,Rain,180,2013-02-19 00:55:00
7:15 PM,47.3,46.8,98,29.45,5.0,South,23.0,32.2,0.03,Rain,Light Rain,180,2013-02-19 01:15:00
7:35 PM,46.8,46.8,100,29.43,5.0,South,28.8,35.7,0.07,Rain,Light Rain,180,2013-02-19 01:35:00
7:55 PM,45.9,45.5,99,29.47,5.0,West,16.1,32.2,0.10,Rain,Heavy Rain,270,2013-02-19 01:55:00
8:15 PM,41.9,41.9,100,29.47,7.0,WNW,17.3,20.7,0.01,Rain,Light Rain,300,2013-02-19 02:15:00
8:35 PM,40.1,40.1,100,29.48,7.0,WNW,19.6,23.0,0.02,Rain,Light Rain,290,2013-02-19 02:35:00
8:55 PM,37.8,37.8,100,29.50,7.0,WNW,23.0,29.9,0.02,,Light Drizzle,290,2013-02-19 02:55:00
9:15 PM,35.6,35.6,100,29.51,7.0,WNW,19.6,28.8,N/A,,Drizzle,290,2013-02-19 03:15:00
9:35 PM,34.7,34.7,100,29.53,5.0,West,21.9,27.6,N/A,Snow,Light Snow,280,2013-02-19 03:35:00
9:55 PM,33.8,33.8,100,29.54,7.0,West,28.8,33.4,N/A,Snow,Light Snow,280,2013-02-19 03:55:00
10:15 PM,32.9,32.4,98,29.56,10.0,West,28.8,36.8,N/A,,Overcast,280,2013-02-19 04:15:00
10:35 PM,32.0,31.3,97,29.56,7.0,West,29.9,39.1,N/A,Snow,Light Snow,280,2013-02-19 04:35:00
10:55 PM,31.3,30.6,97,29.59,2.5,West,24.2,41.4,N/A,Snow,Light Snow,280,2013-02-19 04:55:00
11:15 PM,30.0,28.2,93,29.60,10.0,West,24.2,40.3,N/A,,Overcast,280,2013-02-19 05:15:00
11:35 PM,28.8,26.6,92,29.61,10.0,West,34.5,41.4,N/A,,Overcast,280,2013-02-19 05:35:00
11:55 PM,28.0,26.2,93,29.63,10.0,West,27.6,38.0,N/A,,Overcast,270,2013-02-19 05:55:00